Port Orchard, Washington, United States (98366)
Lat: 47.54N, Lon: 122.64W
Wx Zone: WAZ508
Local Info
Past Weather Observations for Monday, March 23, 2015

NOTE: This archive is for the closest National Weather Service station to Port Orchard. Information may differ from the station used for current weather conditions.

Click here for Long-term Archive

Time Weather Temperature Dewpoint Humidity Pressure Winds Precip Visibility
23:55
Overcast
45°F / 7°C 43°F / 6°C 93% 29.92 in
(1013 mb)
Calm 0.02 in
(0.51 mm)
9SM
23:35
Overcast
45°F / 7°C 45°F / 7°C 100% 29.92 in
(1013 mb)
Calm 0.01 in
(0.25 mm)
10SM
23:15
Overcast
45°F / 7°C 45°F / 7°C 100% 29.95 in
(1014 mb)
Calm 0.01 in
(0.25 mm)
8SM
22:55
Overcast
45°F / 7°C 45°F / 7°C 100% 29.95 in
(1014 mb)
Calm 0.02 in
(0.51 mm)
9SM
22:35
Overcast
45°F / 7°C 45°F / 7°C 100% 29.92 in
(1013 mb)
Calm 0.01 in
(0.25 mm)
9SM
22:15
Overcast
45°F / 7°C 45°F / 7°C 100% 29.95 in
(1014 mb)
Calm - 10SM
21:55
Overcast
45°F / 7°C 45°F / 7°C 100% 29.95 in
(1014 mb)
Calm - 10SM
21:35
Mostly Cloudy
43°F / 6°C 43°F / 6°C 100% 29.95 in
(1014 mb)
Calm - 10SM
21:15
Clear
43°F / 6°C 41°F / 5°C 93% 29.95 in
(1014 mb)
Calm - 10SM
20:55
Clear
43°F / 6°C 43°F / 6°C 100% 29.95 in
(1014 mb)
Calm - 10SM
20:35
Partly Cloudy
43°F / 6°C 43°F / 6°C 100% 29.95 in
(1014 mb)
Calm - 10SM
20:15
Mostly Cloudy
45°F / 7°C 43°F / 6°C 93% 29.98 in
(1015 mb)
Calm - 10SM
19:55
Overcast
45°F / 7°C 45°F / 7°C 100% 29.98 in
(1015 mb)
Calm - 10SM
19:35
Mostly Cloudy
45°F / 7°C 43°F / 6°C 93% 29.95 in
(1014 mb)
SSE 3.5 mph
(SSE 6 kph)
- 10SM
19:15
Partly Cloudy
45°F / 7°C 43°F / 6°C 93% 29.98 in
(1015 mb)
S 4.6 mph
(S 7 kph)
- 10SM
18:55
Mostly Cloudy
45°F / 7°C 45°F / 7°C 100% 29.98 in
(1015 mb)
SSE 4.6 mph
(SSE 7 kph)
- 10SM
18:35
Overcast
45°F / 7°C 45°F / 7°C 100% 29.98 in
(1015 mb)
SSE 4.6 mph
(SSE 7 kph)
- 10SM
18:15
Mostly Cloudy
45°F / 7°C 45°F / 7°C 100% 29.98 in
(1015 mb)
SSE 5.8 mph
(SSE 9 kph)
- 10SM
17:55
Partly Cloudy
46°F / 8°C 45°F / 7°C 93% 29.98 in
(1015 mb)
SSE 5.8 mph
(SSE 9 kph)
- 10SM
17:35
Clear
46°F / 8°C 43°F / 6°C 87% 30.01 in
(1016 mb)
S 6.9 mph
(S 11 kph)
- 10SM
17:15
Partly Cloudy
46°F / 8°C 43°F / 6°C 87% 30.01 in
(1016 mb)
S 8.1 mph
(S 13 kph)
- 10SM
16:55
Mostly Cloudy
46°F / 8°C 45°F / 7°C 93% 30.01 in
(1016 mb)
SW 12.7 mph
(SW 20 kph)
0.07 in
(1.78 mm)
10SM
16:35
Mostly Cloudy
46°F / 8°C 45°F / 7°C 93% 29.98 in
(1015 mb)
SSE 11.5 mph
(SSE 19 kph)
0.07 in
(1.78 mm)
10SM
16:15
Overcast
46°F / 8°C 43°F / 6°C 87% 30.01 in
(1016 mb)
SW 15 mph
(SW 24 kph)
0.06 in
(1.52 mm)
10SM
15:55
Overcast
48°F / 9°C 46°F / 8°C 94% 29.98 in
(1015 mb)
SSE 12.7 mph
(SSE 20 kph)
0.14 in
(3.56 mm)
10SM
15:35
Mostly Cloudy
46°F / 8°C 45°F / 7°C 93% 29.98 in
(1015 mb)
SW 10.4 mph
(SW 17 kph)
0.14 in
(3.56 mm)
10SM
15:15
Mostly Cloudy
48°F / 9°C 46°F / 8°C 94% 29.98 in
(1015 mb)
S 9.2 mph
(S 15 kph)
- 10SM
14:55
Overcast
48°F / 9°C 46°F / 8°C 94% 29.98 in
(1015 mb)
S 12.7 mph
(S 20 kph)
- 10SM
14:35
Mostly Cloudy
46°F / 8°C 46°F / 8°C 100% 29.98 in
(1015 mb)
S 13.8 mph
(S 22 kph)
- 10SM
14:15
Overcast
46°F / 8°C 46°F / 8°C 100% 29.98 in
(1015 mb)
S 13.8 mph
(S 22 kph)
- 10SM
13:55
Overcast
46°F / 8°C 45°F / 7°C 93% 29.98 in
(1015 mb)
SSE 12.7 mph
(SSE 20 kph)
0.05 in
(1.27 mm)
9SM
13:35
Overcast
46°F / 8°C 46°F / 8°C 100% 30.01 in
(1016 mb)
SW 12.7 mph
(SW 20 kph)
0.04 in
(1.02 mm)
10SM
13:15
Overcast
46°F / 8°C 45°F / 7°C 93% 30.01 in
(1016 mb)
SSE 9.2 mph
(SSE 15 kph)
0.02 in
(0.51 mm)
10SM
12:55
Overcast
46°F / 8°C 46°F / 8°C 100% 29.98 in
(1015 mb)
S 11.5 mph
(S 19 kph)
0.04 in
(1.02 mm)
10SM
12:35
Overcast
46°F / 8°C 45°F / 7°C 93% 30.01 in
(1016 mb)
S 8.1 mph
(S 13 kph)
0.03 in
(0.76 mm)
10SM
12:15
Overcast
46°F / 8°C 45°F / 7°C 93% 30.01 in
(1016 mb)
S 12.7 mph
(S 20 kph)
0.02 in
(0.51 mm)
10SM
11:55
Overcast
45°F / 7°C 45°F / 7°C 100% 29.98 in
(1015 mb)
S 8.1 mph
(S 13 kph)
0.03 in
(0.76 mm)
5SM
11:35
Mostly Cloudy
46°F / 8°C 45°F / 7°C 93% 29.98 in
(1015 mb)
S 5.8 mph
(S 9 kph)
0.01 in
(0.25 mm)
10SM
11:15
Overcast
45°F / 7°C 45°F / 7°C 100% 30.01 in
(1016 mb)
S 11.5 mph
(S 19 kph)
0.01 in
(0.25 mm)
10SM
10:55
Mostly Cloudy
45°F / 7°C 45°F / 7°C 100% 29.98 in
(1015 mb)
S 8.1 mph
(S 13 kph)
0.02 in
(0.51 mm)
10SM
10:35
Fair
45°F / 7°C 45°F / 7°C 100% 30.01 in
(1016 mb)
SSE 9.2 mph
(SSE 15 kph)
- 10SM
09:55
Mostly Cloudy
45°F / 7°C 43°F / 6°C 93% 29.98 in
(1015 mb)
SW 11.5 mph
(SW 19 kph)
0.01 in
(0.25 mm)
10SM
09:35
Overcast
45°F / 7°C 45°F / 7°C 100% 29.98 in
(1015 mb)
S 8.1 mph
(S 13 kph)
- 10SM
09:15
Overcast
45°F / 7°C 45°F / 7°C 100% 29.98 in
(1015 mb)
S 6.9 mph
(S 11 kph)
- 10SM
08:55
Overcast
45°F / 7°C 45°F / 7°C 100% 29.98 in
(1015 mb)
SSE 4.6 mph
(SSE 7 kph)
- 10SM
08:35
Fair
45°F / 7°C 45°F / 7°C 100% 29.95 in
(1014 mb)
Calm - 9SM
Time Weather Temperature Dewpoint Humidity Pressure Winds Precip Visibility


Weather for websites

WeatherForYou.com, LLC is not responsible for any damages or problems caused by this service. Current weather conditions are obtained from the closest station including government and personal stations which may have varying degrees of accuracy. Weather forecasts are derived from the NOAA NDFD. Like all things, this site belongs to Jesus Christ... He just trusts me to maintain it. If you have any questions or comments email webmaster@weatherforyou.com

Copyright © 2015, WeatherForYou.com LLC. All rights reserved.